Lid_Strength_Index
15 15 15 16 15 15 15 15 15 15 16 16 16 16 16 15 15 15 15 16 16 16
16 16 16 16 15 15 15 15 16 16 16 15 15 15 16 16 16 15 15 15 15 15
16 16 16 16 16 16 16 16 16 16 16 16 16 16 16 16 15 16 16 15 16 16
16 16 16 16 16 16 16 16 17 17 17 17 17 16 16 16 16 17 16 16 16 16
16 16 17 17 16 16 17 17 17 17 17 17 17 17 17 17 17 17 17 17 17 17
17 17 17 17 17 17 17 17 17 17 17 17 17 17 17 17 17 17 17 17 17 17
18 17 17 17 17 17 17 17 17 17 17 17 17 17 17 17 17 17 17 16 16 16
18 17 17 17 17 17 17 17 17 17 17 17 17 17 17 16 16 16 16 15 14 14
18 18 18 18 18 17 17 17 17 17 17 17 16 14 13 13 14 14 14 13 13 12
19 19 19 18 18 18 17 17 17 16 16 15 14 12 11 10 12 12 12 12 12 11
21 21 19 19 18 17 17 17 16 15 14 13 13 10 10 10 11 11 12 11 11 11
21 22 20 20 19 17 16 15 15 14 13 13 13 10 10 10 11 12 12 11 11 11
19 20 20 18 18 16 15 14 14 14 13 12 13 11 10 10 11 12 12 12 11 9
17 18 17 17 16 16 16 15 15 14 14 13 13 13 10 10 11 12 12 12 12 10